[[{"header":{"parameterUnit":"m.s-1","parameterCategory":1,"la1":30.2991,"la2":30.254,"lo1":-89.0895,"lo2":-89.0444,"dy":0.0017,"dx":0.0017,"nx":28,"ny":28,"refTime":"2025-07-13T03:00:00:Z","depth":0,"parameterNumber":2,"parameterNumberName":"U-component_of_WINDS"},"data":[0,0,0,0,0,0,0,0,0,0,0,0,0,0,0,0,0,0,0,0,0,0,0,0,0,0,0,0,0,0,0,0,0,0,0,0,0,0,0,0,0,0,0,0,0,0,0,0,0,0,0,0,0,0,0,0,0,0,2.9642,2.9643,0,2.9705,2.9706,2.9707,2.9675,2.9673,2.9671,2.967,2.973,2.9733,2.9736,0,0,0,0,0,0,0,0,0,0,0,0,0,2.9489,2.9492,2.9642,2.9643,2.9644,2.9705,2.9706,2.9707,2.9675,2.9673,2.9671,2.9669,2.9729,2.9732,2.9736,0,0,0,0,0,0,0,0,0,0,0,0,0,2.9554,2.9493,2.9642,2.9635,2.9635,2.9705,2.9706,2.9707,2.9675,2.9673,2.967,2.9668,2.9728,2.9732,2.9737,2.9815,0,0,2.9751,2.9753,0,0,0,0,0,0,0,0,2.955,2.956,2.9636,2.9636,2.9636,2.968,2.9674,2.9743,2.9676,2.966,2.967,2.9667,2.9715,2.972,2.9737,2.9818,2.9821,2.9751,2.9754,2.9756,2.9758,0,0,0,0,0,0,0,2.9546,2.9557,2.9667,2.9637,2.9637,2.9627,2.9634,2.9687,2.97,2.9661,2.9659,2.9667,2.9714,2.9733,2.9739,2.9821,2.9751,2.9756,2.9758,2.976,2.9966,2.9968,0,0,0,0,0,0,2.9542,2.9553,2.9665,2.9669,2.9586,2.9632,2.9639,2.9668,2.97,2.9702,2.9669,2.9665,2.9726,2.9733,2.9741,2.9831,2.9756,2.9761,2.9763,2.9963,2.9966,2.9969,0,0,0,0,0,0,2.9539,2.9553,2.9662,2.9611,2.9624,2.9637,2.967,2.9671,2.9689,2.9706,2.9708,2.9686,2.9725,2.9734,2.9796,2.9833,2.9763,2.9767,2.996,2.9964,2.9968,3.0016,0,0,0,0,0,0,2.9535,2.9552,2.9583,2.9612,2.9627,2.9719,2.9672,2.9674,2.9698,2.9693,2.9722,2.9724,2.9723,2.9789,2.9801,2.9838,2.9771,2.9956,2.9962,2.9966,3.0011,3.0021,3.0029,0,0,0,0,0,2.953,2.9594,2.9585,2.9598,2.9666,2.9721,2.973,2.9728,2.9701,2.9731,2.9742,2.9723,2.9828,2.9796,2.9809,2.9848,2.9954,2.996,2.9966,3.0007,3.0019,3.0029,0,0,0,0,0,0,2.9568,2.9597,2.9588,2.9664,2.969,2.9716,2.9754,2.9742,2.9776,2.977,2.9766,2.9772,2.9836,2.9849,2.9813,2.9924,2.9887,2.9895,2.9913,2.9925,2.9934,2.9928,2.9775,0,0,0,0,0,2.9586,2.963,2.9652,2.9717,2.9731,2.974,2.9764,2.9761,2.9788,2.9798,2.9813,2.9839,2.9877,2.9902,2.9938,3.0013,3.0017,3.0047,3.0056,3.0063,3.007,3.0107,3.0119,2.9988,2.9988,2.9988,0,0,2.9622,2.9643,2.9671,2.9725,2.9745,2.9788,2.975,2.9798,2.9828,2.9805,2.9864,2.9876,2.9904,2.9972,3.0003,2.9984,3.0107,3.0071,3.0077,3.0079,3.0114,3.0127,3.0137,2.9992,2.9992,2.9991,0,0,2.9709,2.9731,2.9786,2.9807,2.9838,2.9844,2.9857,2.9885,2.9892,2.9952,2.9934,2.997,3.0037,3.0057,3.0076,3.0169,3.0152,3.0181,3.0228,3.0265,3.0275,3.0284,3.0314,3.0325,3.0188,3.0189,3.0189,0,2.9749,2.9815,2.9815,2.9864,2.9886,2.9869,2.9922,2.9942,2.9984,2.9999,2.9978,3.006,3.0078,3.0149,3.0171,3.0189,3.0201,3.0176,3.0274,3.0283,3.0291,3.0319,3.0331,3.0192,3.0191,3.0191,3.0191,0,2.9861,2.9907,2.9947,2.9988,3.0015,3.0066,3.0072,3.01,3.0094,3.0101,3.0161,3.0182,3.022,3.0238,3.0233,3.0307,3.0294,3.0274,3.0236,3.0307,3.0333,3.0344,3.0196,3.0195,3.0194,3.0193,0,0,2.9972,3.0013,3.0027,3.0044,3.0077,3.0111,3.0161,3.02,3.0222,3.0251,3.029,3.0347,3.0328,3.0349,3.0346,3.0378,3.0447,3.0354,3.0354,3.0367,3.0526,3.0538,3.0551,3.0437,3.0439,3.0441,3.0522,0,3.0059,3.0146,3.0147,3.0226,3.0266,3.025,3.0292,3.0316,3.0324,3.0358,3.0366,3.0405,3.0379,3.0391,3.0423,3.0432,3.0478,3.0426,3.047,3.0471,3.046,3.0565,3.0579,3.0655,3.0533,3.0535,3.0536,0,3.0171,3.0204,3.0287,3.0313,3.0329,3.0368,3.0402,3.0436,3.0462,3.0465,3.0489,3.048,3.0528,3.0491,3.0554,3.0519,3.0537,3.0544,3.0547,3.0548,3.0505,3.0566,3.0679,3.0689,3.0553,3.0551,3.055,0,3.0239,3.0305,3.0362,3.0378,3.041,3.0436,3.0451,3.0474,3.0497,3.0527,3.0541,3.0576,3.0594,3.0621,3.0621,3.0595,3.0684,3.0648,3.0685,3.0685,3.0702,3.07,3.0816,3.072,3.072,3.072,3.0719,0,3.0334,3.0384,3.0393,3.0428,3.0483,3.0484,3.0538,3.0549,3.057,3.0605,3.0594,3.0627,3.0627,3.066,3.0661,3.0711,3.0721,3.0723,3.0721,3.0722,3.0721,3.0731,3.0724,3.0723,3.0722,3.0721,3.0721,0,3.0418,3.0427,3.0487,3.0513,3.052,3.0559,3.058,3.0612,3.0619,3.0664,3.0674,3.0685,3.0723,3.0727,3.0771,3.0771,3.0831,3.0826,3.0822,3.082,3.0856,3.0852,3.098,3.0995,3.0892,3.0893,3.0894,0,3.0476,3.0514,3.0544,3.0567,3.0583,3.0621,3.0644,3.0645,3.0669,3.0701,3.0728,3.0766,3.0795,3.0856,3.0866,3.0899,3.0893,3.0936,3.0898,3.0896,3.0889,3.0885,3.0888,3.0942,3.0943,3.0944,3.0945,0,3.0577,3.0579,3.0613,3.0649,3.0677,3.0704,3.073,3.075,3.0754,3.0781,3.0821,3.0844,3.0889,3.0924,3.0957,3.0969,3.0956,3.0957,3.0967,3.0966,3.096,3.096,3.0839,3.0953,3.0953,3.0952,3.0951,3.0951,3.0647,3.0679,3.0704,3.0742,3.0762,3.0787,3.0817,3.0828,3.0862,3.0899,3.0898,3.094,3.0962,3.1005,3.102,3.1051,3.1036,3.1052,3.1055,3.1058,3.1059,3.0958,3.1057,3.1057,3.1057,3.1057,3.1057,0,3.0744,3.0759,3.0794,3.0831,3.086,3.0849,3.0876,3.0901,3.0938,3.0961,3.0991,3.1034,3.1069,3.1082,3.1115,3.1138,3.1132,3.1146,3.1142,3.1145,3.1072,3.1059,3.1149,3.1149,3.1149,3.1149,3.1149,3.1149,3.0797,3.085,3.0855,3.0917,3.0931,3.0974,3.099,3.1011,3.1029,3.1079,3.1108,3.1117,3.1135,3.1169,3.1199,3.1202,3.1213,3.1228,3.1228,3.116,3.115,3.1141,3.1128,3.1231,3.1232,3.1297,3.1298,3.1298]},{"header":{"parameterUnit":"m.s-1","parameterCategory":1,"la1":30.2991,"la2":30.254,"lo1":-89.0895,"lo2":-89.0444,"dy":0.0017,"dx":0.0017,"nx":28,"ny":28,"refTime":"2025-07-13T03:00:00:Z","depth":0,"parameterNumber":3,"parameterNumberName":"V-component_of_WINDS"},"data":[0,0,0,0,0,0,0,0,0,0,0,0,0,0,0,0,0,0,0,0,0,0,0,0,0,0,0,0,0,0,0,0,0,0,0,0,0,0,0,0,0,0,0,0,0,0,0,0,0,0,0,0,0,0,0,0,0,0,1.7869,1.7869,0,1.7887,1.7887,1.7888,1.786,1.7859,1.7858,1.7857,1.7878,1.788,1.7881,0,0,0,0,0,0,0,0,0,0,0,0,0,1.7809,1.7811,1.7869,1.7869,1.7869,1.7887,1.7887,1.7888,1.786,1.7859,1.7858,1.7856,1.7878,1.7879,1.7881,0,0,0,0,0,0,0,0,0,0,0,0,0,1.7832,1.7811,1.7869,1.7857,1.7856,1.7887,1.7887,1.7888,1.786,1.7859,1.7857,1.7856,1.7877,1.7879,1.7881,1.7925,0,0,1.7888,1.7889,0,0,0,0,0,0,0,0,1.7831,1.7835,1.7859,1.7858,1.7857,1.787,1.7874,1.79,1.7861,1.7859,1.7857,1.7855,1.7877,1.7879,1.7886,1.7926,1.7927,1.7888,1.789,1.7891,1.7891,0,0,0,0,0,0,0,1.7829,1.7834,1.7876,1.7859,1.7858,1.7851,1.7853,1.7879,1.7876,1.7859,1.7857,1.7859,1.7876,1.7883,1.7886,1.7927,1.7888,1.789,1.7892,1.7893,1.8001,1.8002,0,0,0,0,0,0,1.7829,1.7832,1.7875,1.7877,1.784,1.7854,1.7856,1.7867,1.7875,1.7875,1.7861,1.7858,1.788,1.7883,1.7887,1.7936,1.7891,1.7893,1.7894,1.7999,1.8001,1.8003,0,0,0,0,0,0,1.7828,1.7833,1.7875,1.7854,1.7859,1.7856,1.787,1.7868,1.7876,1.7877,1.7876,1.7869,1.7879,1.7883,1.7915,1.7936,1.7894,1.7896,1.7998,1.8,1.8002,1.8037,0,0,0,0,0,0,1.7826,1.7833,1.7849,1.7854,1.786,1.7903,1.7871,1.787,1.7879,1.7876,1.7884,1.7884,1.7879,1.7911,1.7917,1.7939,1.7897,1.7996,1.7999,1.8001,1.8034,1.804,1.8045,0,0,0,0,0,1.7824,1.7859,1.785,1.7856,1.788,1.7904,1.7907,1.7899,1.7881,1.7898,1.7898,1.7884,1.7933,1.7915,1.7921,1.7944,1.7994,1.7998,1.8001,1.8031,1.8039,1.8045,0,0,0,0,0,0,1.7858,1.786,1.785,1.7888,1.7896,1.7899,1.792,1.7908,1.7922,1.7918,1.7908,1.791,1.7943,1.7947,1.7926,1.7985,1.7961,1.7966,1.7981,1.7989,1.7994,1.7993,1.7899,0,0,0,0,0,1.787,1.7888,1.7889,1.7922,1.7927,1.7922,1.7932,1.7925,1.7934,1.7937,1.794,1.7949,1.7966,1.7978,1.7994,1.8034,1.8035,1.8052,1.8058,1.8063,1.8067,1.8087,1.8094,1.8014,1.8014,1.8014,0,0,1.7895,1.7898,1.791,1.7929,1.7934,1.7954,1.7926,1.7948,1.7962,1.7941,1.797,1.7972,1.7981,1.8016,1.8032,1.802,1.8089,1.8067,1.8071,1.8073,1.8091,1.8099,1.8106,1.8017,1.8016,1.8016,0,0,1.7949,1.7954,1.7981,1.7986,1.7994,1.7991,1.7997,1.8002,1.8002,1.8031,1.8015,1.8032,1.8062,1.8069,1.8076,1.8131,1.8118,1.8136,1.8167,1.8186,1.8193,1.8198,1.8216,1.8223,1.8141,1.8141,1.8141,0,1.7979,1.8007,1.7997,1.8019,1.8027,1.8007,1.8034,1.8041,1.8054,1.806,1.8046,1.8082,1.8087,1.8123,1.8136,1.8143,1.815,1.8135,1.8192,1.8198,1.8203,1.822,1.8227,1.8143,1.8143,1.8142,1.8142,0,1.8043,1.8062,1.8083,1.8094,1.8105,1.813,1.8123,1.8135,1.8127,1.8125,1.8153,1.8158,1.8174,1.8182,1.8175,1.8217,1.8209,1.8194,1.8169,1.8213,1.8229,1.8235,1.8146,1.8145,1.8144,1.8144,0,0,1.812,1.8124,1.8132,1.8136,1.8142,1.8157,1.818,1.8195,1.8204,1.8214,1.8233,1.8258,1.8243,1.8252,1.8245,1.8262,1.8303,1.8245,1.8245,1.8255,1.8347,1.8358,1.8366,1.8295,1.8296,1.8297,1.8346,0,1.8173,1.8213,1.8203,1.8242,1.8259,1.824,1.826,1.8266,1.8264,1.8278,1.8277,1.8294,1.8275,1.8279,1.8295,1.8295,1.8321,1.8291,1.8312,1.8313,1.8309,1.8374,1.8386,1.8432,1.8353,1.8354,1.8354,0,1.8241,1.8251,1.8291,1.8292,1.8299,1.8318,1.8329,1.8343,1.8349,1.8346,1.8355,1.8344,1.8366,1.8342,1.8372,1.8352,1.836,1.836,1.8362,1.8363,1.8336,1.8376,1.8447,1.8454,1.8364,1.8364,1.8363,0,1.8292,1.8316,1.8342,1.8346,1.8349,1.8362,1.8364,1.8368,1.8377,1.8387,1.8392,1.8405,1.8412,1.8422,1.8415,1.8398,1.8447,1.8422,1.8445,1.8445,1.8456,1.8455,1.8528,1.8462,1.8462,1.8462,1.8462,0,1.8352,1.8377,1.8364,1.8381,1.8408,1.8396,1.8424,1.8423,1.8427,1.8443,1.8428,1.8443,1.8433,1.8447,1.8442,1.8467,1.8471,1.8469,1.8467,1.847,1.847,1.8474,1.8471,1.8464,1.8463,1.8463,1.8463,0,1.8413,1.8406,1.8433,1.8433,1.8433,1.8453,1.8453,1.8468,1.8464,1.8484,1.8488,1.8483,1.8499,1.8493,1.851,1.8506,1.8538,1.8533,1.8536,1.8534,1.8557,1.8555,1.8635,1.8644,1.8573,1.8574,1.8575,0,1.8452,1.847,1.8471,1.848,1.8482,1.8497,1.8505,1.8494,1.8503,1.851,1.8524,1.8538,1.8548,1.8575,1.8573,1.8585,1.8579,1.8606,1.8581,1.8583,1.8578,1.8577,1.8578,1.8612,1.8612,1.8613,1.8614,0,1.852,1.8515,1.8527,1.8537,1.8546,1.8554,1.856,1.8569,1.8558,1.8568,1.8584,1.8592,1.8608,1.8622,1.8633,1.8635,1.8622,1.8621,1.8627,1.863,1.863,1.8629,1.8549,1.862,1.8619,1.8619,1.8618,1.8618,1.8571,1.8585,1.8587,1.86,1.8604,1.8609,1.8623,1.862,1.8632,1.8644,1.8637,1.8654,1.8658,1.8671,1.8674,1.8688,1.8677,1.8686,1.8688,1.869,1.8693,1.8629,1.869,1.869,1.869,1.869,1.8689,0,1.8637,1.8637,1.8649,1.8657,1.8667,1.8653,1.8659,1.8668,1.8683,1.8688,1.8698,1.8714,1.8727,1.8726,1.8737,1.8748,1.8743,1.8752,1.8751,1.8751,1.8702,1.8695,1.8756,1.8756,1.8756,1.8756,1.8756,1.8756,1.8673,1.8696,1.8691,1.8716,1.8716,1.8732,1.8736,1.8741,1.8744,1.8763,1.8773,1.8771,1.8773,1.8784,1.8795,1.8794,1.8799,1.881,1.8807,1.8761,1.8755,1.8748,1.8742,1.8811,1.8811,1.8854,1.8855,1.8855]}]]